Location: *
(38.9555°S, 57.3572°E)
Time: 00:44:22
(UTC+00:00)

Cosmos 1538 Rocket - Pass Details

Date: 15 July 2020
Orbit: 753 x 791 km, 74.0° (Epoch: 06 August)

Event Time Altitude Azimuth Distance (km) Brightness Sun altitude
Rises 14:13:54 0° 200° (SSW) 3,309 7.3 -12.7°
Reaches altitude 10° 14:16:18 10° 200° (SSW) 2,377 6.6 -13.2°
Maximum altitude 14:21:44 84° 286° (WNW) 808 4.1 -14.2°
Drops below altitude 10° 14:27:08 10° 14° (NNE) 2,358 6.5 -15.2°
Sets 14:29:30 0° 15° (NNE) 3,279 7.3 -15.7°
